Weather History for Marathon, FL

Change the Weather History Date:

Saturday, October 12, 2013

  Actual Average Record
Temperature  
Mean Temperature 83 °F 82 °F  
Max Temperature 86 °F 86 °F 91 °F (2002)
Min Temperature 79 °F 77 °F 72 °F (2010)
Degree Days  
Heating Degree Days 0 0  
Month to date heating degree days 0 0  
Since 1 July heating degree days 0 0  
Cooling Degree Days 18 16  
Month to date cooling degree days 221 208  
Year to date cooling degree days 4527 4162  
Growing Degree Days 32 (Base 50)    
Moisture  
Dew Point 66 °F    
Average Humidity 56    
Maximum Humidity 67    
Minimum Humidity 45    
Precipitation  
Precipitation 0.00 in 0.18 in 8.28 in (2010)
Month to date precipitation 1.08 2.17  
Year to date precipitation 43.47 38.72  
Snow  
Snow 0.00 in - - ()
Month to date snowfall 0.0  
Since 1 July snowfall 0.0  
Since 1 September snowfall 0.0  
Snow Depth 0.00 in    
Sea Level Pressure  
Sea Level Pressure 29.99 in    
Wind  
Wind Speed 8 mph (ENE)    
Max Wind Speed 14 mph    
Max Gust Speed 16 mph    
Visibility 10 miles    
Events      
T = Trace of Precipitation, MM = Missing Value Source: NWS Daily Summary

Daily Weather History Graph

Daily Weather History Graph

Search for Another Location

Airport:

Trip Planner

Search our weather history database for the weather conditions in past years. The results will help you decide how hot, cold, wet, or windy it might be!

Date:

Astronomy

Oct. 12, 2013 Rise Set
Actual Time 7:20 AM EDT 6:59 PM EDT
Civil Twilight 6:58 AM EDT 7:22 PM EDT
Nautical Twilight 6:31 AM EDT 7:49 PM EDT
Astronomical Twilight 6:05 AM EDT 8:15 PM EDT
Moon 2:32 PM EDT (10/12) 1:01 AM EDT (10/12)
Length of Visible Light 12h 24m
Length of Day
11h 38m
First Quarter, 58% of the Moon is Illuminated
Oct 12
First Quarter
Oct 18
Full
Oct 26
Last Quarter
Nov 3
New
Nov 10
First Quarter

Hourly Weather History & Observations

Time (EDT) Temp. Heat Index Dew Point Humidity Pressure Visibility Wind Dir Wind Speed Gust Speed Precip Events Conditions
12:53 AM 81.0 °F 83.0 °F 66.0 °F 60% 29.97 in 10.0 mi East 9.2 mph - N/A   Clear
1:53 AM 80.1 °F 82.7 °F 68.0 °F 67% 29.96 in 10.0 mi East 9.2 mph - N/A   Clear
2:53 AM 80.1 °F 82.3 °F 66.9 °F 64% 29.95 in 10.0 mi East 6.9 mph - N/A   Clear
3:53 AM 80.1 °F 82.3 °F 66.9 °F 64% 29.95 in 10.0 mi ENE 5.8 mph - N/A   Clear
4:53 AM 79.0 °F - 66.9 °F 66% 29.95 in 10.0 mi ENE 5.8 mph - N/A   Clear
5:53 AM 79.0 °F - 66.9 °F 66% 29.97 in 10.0 mi ENE 6.9 mph - N/A   Clear
6:53 AM 79.0 °F - 66.0 °F 64% 29.99 in 10.0 mi ENE 5.8 mph - N/A   Clear
7:53 AM 79.0 °F - 66.0 °F 64% 29.99 in 10.0 mi ENE 5.8 mph - N/A   Clear
8:53 AM 82.0 °F 84.1 °F 66.0 °F 58% 30.01 in 10.0 mi ENE 6.9 mph - N/A   Clear
9:53 AM 82.9 °F 85.0 °F 66.0 °F 56% 30.01 in 10.0 mi NE 11.5 mph - N/A   Clear
10:53 AM 84.0 °F 87.0 °F 68.0 °F 58% 30.03 in 10.0 mi NE 11.5 mph - N/A   Clear
11:53 AM 84.0 °F 86.3 °F 66.0 °F 55% 30.02 in 10.0 mi NE 11.5 mph - N/A   Clear
12:53 PM 86.0 °F 87.3 °F 64.0 °F 48% 30.01 in 10.0 mi NE 10.4 mph - N/A   Clear
1:53 PM 86.0 °F 87.3 °F 64.0 °F 48% 30.00 in 10.0 mi NE 10.4 mph - N/A   Clear
2:53 PM 86.0 °F 86.8 °F 63.0 °F 46% 29.98 in 10.0 mi NE 12.7 mph - N/A   Clear
3:53 PM 84.9 °F 86.6 °F 64.9 °F 51% 29.96 in 10.0 mi East 9.2 mph - N/A   Clear
4:53 PM 84.0 °F 85.8 °F 64.9 °F 53% 29.97 in 10.0 mi East 5.8 mph - N/A   Clear
5:53 PM 82.9 °F 84.6 °F 64.9 °F 54% 29.98 in 10.0 mi ENE 8.1 mph - N/A   Clear
6:53 PM 82.0 °F 83.4 °F 64.0 °F 54% 29.99 in 10.0 mi ENE 6.9 mph - N/A   Clear
7:53 PM 81.0 °F 82.7 °F 64.9 °F 58% 30.00 in 10.0 mi ENE 6.9 mph - N/A   Clear
8:53 PM 81.0 °F 83.0 °F 66.0 °F 60% 30.01 in 10.0 mi ENE 5.8 mph - N/A   Clear
9:53 PM 80.1 °F 82.3 °F 66.9 °F 64% 30.02 in 10.0 mi East 5.8 mph - N/A   Clear
10:53 PM 80.1 °F 82.3 °F 66.9 °F 64% 30.03 in 10.0 mi ENE 8.1 mph - N/A   Clear
11:53 PM 80.1 °F 82.3 °F 66.9 °F 64% 30.02 in 10.0 mi ENE 5.8 mph - N/A   Clear